Regional Weather Roundup
Issued by NWS

Home | Current Version | Previous Version | Graphics & Text | Print | Product List | Glossary On
Versions: 1 2 3 4 5 6 7 8 9 10 11 12 13 14 15 16 17 18 19 20 21 22 23 24 25 26 27 28 29 30 31 32 33 34 35 36 37 38 39 40 41 42 43 44 45 46 47 48 49 50
429
ASUS43 KDTX 272201
RWRMI
MICHIGAN HOURLY REGIONAL WEATHER ROUNDUP
NATIONAL WEATHER SERVICE DETROIT/PONTIAC MI
600 PM EDT FRI MAY 27 2016

NOTE: "FAIR" INDICATES FEW OR NO CLOUDS BELOW 12,000 FEET WITH NO
SIGNIFICANT WEATHER AND/OR OBSTRUCTION TO VISIBILITY.

MIZ047>049-052>055-059>063-066>070-074>076-081>083-272300-
SOUTHEAST LOWER MICHIGAN

CITY           SKY/WX    TMP DP  RH WIND       PRES   REMARKS
ADRIAN         CLOUDY    84  61  45 S7        29.95F
ALMA           CLOUDY    76  67  73 E3        29.93F
ANN ARBOR      CLOUDY    83  63  50 S8        29.95F
BAD AXE        PTSUNNY   79  65  61 SE6       29.95S
CARO           PTSUNNY   84  63  49 S12       29.93S
DETROIT CITY   CLOUDY    83  62  49 S8        29.96S
DETROIT        CLOUDY    81  65  58 SE7       29.96F
FLINT          CLOUDY    85  62  46 S9        29.94F
GROSSE ILE     CLOUDY    79  64  61 SE6       29.95F
HILLSDALE      CLOUDY    83  54  37 S8        29.95F
HOWELL         CLOUDY    82  60  46 S7        29.96S

CITY           SKY/WX    TMP DP  RH WIND       PRES   REMARKS
JACKSON        CLOUDY    81  62  52 S6        29.95F
LAMBERTVILLE   SUNNY     86  62  44 SW6       29.95F
LANSING        CLOUDY    81  62  52 SW10      29.94F
LAPEER         FAIR      85  57  38 S8        29.95F
MASON          MOSUNNY   81  62  52 S7        29.94F
MONROE         CLOUDY    80  66  63 SE5       29.95F
MT. CLEMENS    PTSUNNY   79  65  61 SE7       29.95F
PONTIAC        CLOUDY    81  61  50 SW8       29.96S
PORT HOPE        N/A     62  60  93 E12       29.95F
PORT HURON     MOSUNNY   82  64  54 S9        29.96F
TRI CITIES     LGT RAIN  75  66  73 W14       29.94R
MIDLAND        LGT RAIN  71  65  82 CALM      29.95R
TROY           CLOUDY    84  62  47 S3        29.98S
SAGINAW HB     CLOUDY    82  61  47 S12       29.92S
$$
MIZ043>046-050>051-056>058-064>065-071>073-077>080-272300-
SOUTHWEST LOWER MICHIGAN

CITY           SKY/WX    TMP DP  RH WIND       PRES   REMARKS
BATTLE CREEK   CLOUDY    81  63  54 S8        29.92F
BENTON HARBOR  PTSUNNY   82  63  52 SE6       29.86F
BIG RAPIDS     CLOUDY    72  69  91 S5        29.92F
COLDWATER      CLOUDY    81  64  57 SE6       29.93F
FREMONT        CLOUDY    77  70  78 SE5       29.89F
HOLLAND        CLOUDY    80  65  59 SE9       29.89F
GRAND RAPIDS   CLOUDY    82  65  56 SE12      29.91F
IONIA          CLOUDY    82  60  47 S10G17    29.91F
KALAMAZOO      PTSUNNY   82  62  50 VRB6      29.91F
LUDINGTON      CLOUDY    74  66  75 SW7       29.88S
MARSHALL       MOSUNNY   82  64  54 S7        29.93F
MOUNT PLEASANT CLOUDY    73  69  87 E5        29.93F
MUSKEGON       CLOUDY    80  61  52 SE6       29.88F
SOUTH HAVEN    PTSUNNY   80  65  59 SE5       29.87F
$$
MIZ016>042-272300-
NORTHERN LOWER MICHIGAN

CITY           SKY/WX    TMP DP  RH WIND       PRES   REMARKS
ALPENA         MOSUNNY   71  59  65 E10       29.93F
BEAVER ISLAND  CLOUDY    67  58  72 E7        29.90F
BELLAIRE       RAIN      72  62  70 N5        29.89R
CADILLAC       CLOUDY    69  64  82 SE5       29.93F
CHARLEVOIX     RAIN      69  60  73 S10       29.94R
FRANKFORT      PTSUNNY   66  62  85 CALM      29.89F
GAYLORD        CLOUDY    81  59  47 S10       29.92F
GRAYLING       CLOUDY    80  63  54 SE8       29.92F
HARBOR SPRINGS CLOUDY    79  62  56 E10       29.88F
HOUGHTON LAKE  LGT RAIN  76  66  71 S6        29.93F
MANISTEE       MOSUNNY   77  64  65 S9        29.89S
OSCODA         PTSUNNY   73  60  63 SE7       29.95S
PELLSTON       CLOUDY    79  60  52 NE9       29.90F
ROGERS CITY    CLOUDY    69  58  67 NE6       29.93S
TRAVERSE CITY  TSTM      68  66  93 VRB3G22   29.91R FOG
$$
MIZ007>008-015-272300-
EASTERN UPPER MICHIGAN

CITY           SKY/WX    TMP DP  RH WIND       PRES   REMARKS
KINROSS          N/A     75  61  60 SE9       29.93F
MACKINAC ISLAN MOSUNNY   60  53  75 E15G21    29.92F
NEWBERRY       CLOUDY    74  61  63 CALM      29.92S
S. S. MARIE    CLOUDY    76  58  53 SE7       29.93S
MUNISING         N/A     56  53  90 CALM      29.89F
$$
MIZ004>006-011>014-085-272300-
CENTRAL UPPER MICHIGAN

CITY           SKY/WX    TMP DP  RH WIND       PRES   REMARKS
MANISTIQUE     CLOUDY    72  63  74 CALM      29.89F
ESCANABA       CLOUDY    63  61  94 CALM      29.88F
MENOMINEE      CLOUDY    64  61  88 E10       29.86F
SAWYER-GWINN   CLOUDY    70  61  73 SE9       29.91S
$$
MIZ001>003-009>011-084-272300-
WESTERN UPPER MICHIGAN

CITY           SKY/WX    TMP DP  RH WIND       PRES   REMARKS
IRON MOUNTAIN  LGT RAIN  69  63  81 SE7       29.85F
HOUGHTON       CLOUDY    59  54  83 E8        29.88F
COPPER HARBOR    N/A     49  46  90 E3        29.89F
IRONWOOD       CLOUDY    64  63  94 CALM      29.83R
$$

ABBREVIATIONS USED IN REMARKS
   TC - TEMPERATURE IN CELSIUS
  WCI - WIND CHILL INDEX
   HX - HEAT INDEX
  VSB - VISIBILITY





USA.gov is the U.S. government's official web portal to all federal, state and local government web resources and services.